When you browse on this site, cookies collect data to enhance your experience and personalize the content and advertising you see.
Visit our Privacy Policy to learn more. By continuing to use the site, you agree to this use of cookies and data.
  • Em Portugal
  • Lista de países
  • Para 7 dias
  • Temperatura da água
  • Mapa do tempo
  • Widgets de tempo
  • user-avatar
    Iniciar Sessão

    Previsão horária em Novomihaylovka

    Hoje, 3 Junho, Quarta-feira

    Tempo Temperatura Precipitação Vento Pressão Humidade
    00:00 +13°C° 0 mm 4 m/s 729 mmHg 86%
    01:00 +13°C° 0.2 mm 4 m/s 729 mmHg 86%
    02:00 +12°C° 0.2 mm 4 m/s 729 mmHg 87%
    03:00 +12°C° 0.2 mm 4 m/s 729 mmHg 87%
    04:00 +13°C° 0.2 mm 4 m/s 729 mmHg 86%
    05:00 +14°C° 0.2 mm 4 m/s 729 mmHg 85%
    06:00 +15°C° 0 mm 5 m/s 729 mmHg 85%
    07:00 +16°C° 0.5 mm 5 m/s 729 mmHg 82%
    08:00 +16°C° 0.5 mm 5 m/s 729 mmHg 79%
    09:00 +17°C° 0.5 mm 5 m/s 729 mmHg 76%
    10:00 +17°C° 0.8 mm 6 m/s 729 mmHg 72%
    11:00 +18°C° 0.8 mm 7 m/s 729 mmHg 69%
    12:00 +18°C° 0.8 mm 7 m/s 729 mmHg 66%
    13:00 +18°C° 0.5 mm 7 m/s 730 mmHg 65%
    14:00 +17°C° 0.5 mm 6 m/s 730 mmHg 63%
    15:00 +17°C° 0.5 mm 6 m/s 731 mmHg 62%
    16:00 +16°C° 0.1 mm 5 m/s 731 mmHg 64%
    17:00 +17°C° 0.1 mm 4 m/s 732 mmHg 67%
    18:00 +16°C° 0.1 mm 3 m/s 732 mmHg 69%
    19:00 +15°C° 0.1 mm 2 m/s 732 mmHg 71%
    20:00 +13°C° 0.1 mm 2 m/s 733 mmHg 73%
    21:00 +12°C° 0.1 mm 1 m/s 733 mmHg 75%
    22:00 +12°C° 0 mm 1 m/s 733 mmHg 77%
    23:00 +11°C° 0 mm 1 m/s 733 mmHg 79%

    Amanhã, 4 Junho, Quinta-feira

    Tempo Temperatura Precipitação Vento Pressão Humidade
    00:00 +10°C° 0 mm 1 m/s 733 mmHg 81%
    01:00 +10°C° 0 mm 1 m/s 733 mmHg 82%
    02:00 +9°C° 0 mm 1 m/s 733 mmHg 83%
    03:00 +9°C° 0 mm 1 m/s 732 mmHg 84%
    04:00 +9°C° 0 mm 0 m/s 732 mmHg 82%
    05:00 +10°C° 0 mm 0 m/s 732 mmHg 79%
    06:00 +11°C° 0 mm 0 m/s 732 mmHg 77%
    07:00 +13°C° 0 mm 1 m/s 731 mmHg 74%
    08:00 +13°C° 0 mm 1 m/s 731 mmHg 72%
    09:00 +14°C° 0 mm 1 m/s 730 mmHg 69%
    10:00 +15°C° 0.2 mm 1 m/s 730 mmHg 67%
    11:00 +16°C° 0.2 mm 1 m/s 730 mmHg 65%
    12:00 +18°C° 0.2 mm 1 m/s 730 mmHg 63%
    13:00 +18°C° 0.2 mm 1 m/s 729 mmHg 61%
    14:00 +19°C° 0.2 mm 1 m/s 729 mmHg 59%
    15:00 +20°C° 0.2 mm 1 m/s 729 mmHg 57%
    16:00 +19°C° 0.8 mm 1 m/s 729 mmHg 62%
    17:00 +18°C° 0.8 mm 1 m/s 729 mmHg 68%
    18:00 +17°C° 0.8 mm 2 m/s 729 mmHg 74%
    19:00 +15°C° 0.1 mm 1 m/s 729 mmHg 77%
    20:00 +13°C° 0.1 mm 1 m/s 729 mmHg 81%
    21:00 +12°C° 0.1 mm 1 m/s 729 mmHg 84%
    22:00 +11°C° 0 mm 1 m/s 728 mmHg 85%
    23:00 +11°C° 0 mm 1 m/s 728 mmHg 86%

    Depois de amanhã, 5 Junho, Sexta-feira

    Tempo Temperatura Precipitação Vento Pressão Humidade
    00:00 +11°C° 0 mm 1 m/s 728 mmHg 87%
    01:00 +10°C° 0 mm 1 m/s 728 mmHg 88%
    02:00 +10°C° 0 mm 1 m/s 727 mmHg 89%
    03:00 +10°C° 0 mm 1 m/s 727 mmHg 90%
    04:00 +10°C° 0 mm 1 m/s 727 mmHg 87%
    05:00 +11°C° 0 mm 1 m/s 727 mmHg 85%
    06:00 +12°C° 0 mm 1 m/s 726 mmHg 83%
    07:00 +10°C° 1.2 mm 2 m/s 726 mmHg 86%
    08:00 +10°C° 1.2 mm 3 m/s 726 mmHg 90%
    09:00 +8°C° 1.2 mm 5 m/s 725 mmHg 93%
    10:00 +8°C° 1.3 mm 4 m/s 726 mmHg 92%
    11:00 +8°C° 1.3 mm 4 m/s 726 mmHg 90%
    12:00 +10°C° 1.3 mm 4 m/s 726 mmHg 88%
    13:00 +10°C° 0.2 mm 4 m/s 727 mmHg 87%
    14:00 +9°C° 0.2 mm 5 m/s 727 mmHg 87%
    15:00 +9°C° 0.2 mm 5 m/s 727 mmHg 86%
    16:00 +9°C° 0.6 mm 5 m/s 728 mmHg 88%
    17:00 +8°C° 0.6 mm 6 m/s 728 mmHg 90%
    18:00 +8°C° 0.6 mm 6 m/s 728 mmHg 91%
    19:00 +8°C° 1.2 mm 6 m/s 728 mmHg 91%
    20:00 +8°C° 1.2 mm 6 m/s 728 mmHg 91%
    21:00 +8°C° 1.2 mm 6 m/s 728 mmHg 91%
    22:00 +7°C° 1.4 mm 6 m/s 728 mmHg 92%
    23:00 +7°C° 1.4 mm 6 m/s 729 mmHg 93%

    6 Junho, Sábado

    Tempo Temperatura Precipitação Vento Pressão Humidade
    00:00 +6°C° 1.4 mm 7 m/s 729 mmHg 93%
    01:00 +6°C° 4.6 mm 7 m/s 729 mmHg 94%
    02:00 +6°C° 4.6 mm 8 m/s 729 mmHg 94%
    03:00 +5°C° 4.6 mm 9 m/s 729 mmHg 94%
    04:00 +5°C° 3.3 mm 8 m/s 730 mmHg 94%
    05:00 +5°C° 3.3 mm 7 m/s 730 mmHg 93%
    06:00 +5°C° 3.3 mm 7 m/s 731 mmHg 93%
    07:00 +6°C° 1.2 mm 7 m/s 731 mmHg 92%
    08:00 +7°C° 1.2 mm 6 m/s 732 mmHg 90%
    09:00 +8°C° 1.2 mm 6 m/s 732 mmHg 89%
    10:00 +9°C° 0.2 mm 7 m/s 733 mmHg 85%
    11:00 +10°C° 0.2 mm 7 m/s 733 mmHg 81%
    12:00 +10°C° 0.2 mm 8 m/s 734 mmHg 78%
    13:00 +10°C° 0.4 mm 8 m/s 734 mmHg 80%
    14:00 +9°C° 0.4 mm 7 m/s 734 mmHg 83%
    15:00 +9°C° 0.4 mm 7 m/s 734 mmHg 85%
    16:00 +9°C° 0.1 mm 7 m/s 734 mmHg 85%
    17:00 +9°C° 0.1 mm 6 m/s 735 mmHg 84%
    18:00 +10°C° 0.1 mm 6 m/s 735 mmHg 84%
    19:00 +9°C° 0.6 mm 6 m/s 735 mmHg 86%
    20:00 +9°C° 0.6 mm 5 m/s 735 mmHg 89%
    21:00 +8°C° 0.6 mm 5 m/s 735 mmHg 91%
    22:00 +8°C° 1.5 mm 5 m/s 735 mmHg 91%
    23:00 +8°C° 1.5 mm 5 m/s 735 mmHg 91%

    7 Junho, Domingo

    Tempo Temperatura Precipitação Vento Pressão Humidade
    00:00 +8°C° 1.5 mm 5 m/s 735 mmHg 91%
    01:00 +8°C° 0.2 mm 5 m/s 735 mmHg 92%
    02:00 +8°C° 0.2 mm 5 m/s 735 mmHg 92%
    03:00 +8°C° 0.2 mm 5 m/s 735 mmHg 93%
    04:00 +8°C° 0.6 mm 5 m/s 735 mmHg 92%
    05:00 +10°C° 0.6 mm 4 m/s 734 mmHg 92%
    06:00 +10°C° 0.6 mm 4 m/s 734 mmHg 92%
    07:00 +10°C° 0.3 mm 5 m/s 734 mmHg 88%
    08:00 +11°C° 0.3 mm 6 m/s 734 mmHg 84%
    09:00 +14°C° 0.3 mm 6 m/s 734 mmHg 80%
    10:00 +13°C° 1.3 mm 5 m/s 733 mmHg 84%
    11:00 +12°C° 1.3 mm 4 m/s 733 mmHg 87%
    12:00 +11°C° 1.3 mm 3 m/s 732 mmHg 91%
    13:00 +12°C° 0.4 mm 3 m/s 732 mmHg 86%
    14:00 +13°C° 0.4 mm 3 m/s 732 mmHg 82%
    15:00 +14°C° 0.4 mm 3 m/s 732 mmHg 77%
    16:00 +14°C° 0.6 mm 3 m/s 733 mmHg 79%
    17:00 +14°C° 0.6 mm 4 m/s 733 mmHg 81%
    18:00 +13°C° 0.6 mm 4 m/s 733 mmHg 82%
    19:00 +12°C° 0.6 mm 3 m/s 733 mmHg 84%
    20:00 +12°C° 0.6 mm 2 m/s 734 mmHg 86%
    21:00 +10°C° 0.6 mm 2 m/s 734 mmHg 88%
    22:00 +10°C° 0.6 mm 2 m/s 734 mmHg 89%
    23:00 +9°C° 0.6 mm 2 m/s 734 mmHg 91%

    8 Junho, Segunda-feira

    Tempo Temperatura Precipitação Vento Pressão Humidade
    00:00 +9°C° 0.6 mm 3 m/s 734 mmHg 93%
    01:00 +9°C° 0.2 mm 2 m/s 735 mmHg 92%
    02:00 +9°C° 0.2 mm 2 m/s 735 mmHg 92%
    03:00 +8°C° 0.2 mm 2 m/s 735 mmHg 92%
    04:00 +9°C° 0.3 mm 2 m/s 735 mmHg 91%
    05:00 +9°C° 0.3 mm 2 m/s 735 mmHg 91%
    06:00 +9°C° 0.3 mm 3 m/s 735 mmHg 90%
    07:00 +10°C° 0.4 mm 3 m/s 735 mmHg 84%
    08:00 +11°C° 0.4 mm 3 m/s 735 mmHg 78%
    09:00 +12°C° 0.4 mm 3 m/s 734 mmHg 72%
    10:00 +13°C° 0.4 mm 3 m/s 734 mmHg 69%
    11:00 +14°C° 0.4 mm 3 m/s 734 mmHg 66%
    12:00 +14°C° 0.4 mm 3 m/s 734 mmHg 64%
    13:00 +16°C° 0.9 mm 3 m/s 734 mmHg 64%
    14:00 +16°C° 0.9 mm 2 m/s 734 mmHg 64%
    15:00 +16°C° 0.9 mm 2 m/s 734 mmHg 65%
    16:00 +16°C° 0.5 mm 2 m/s 734 mmHg 68%
    17:00 +15°C° 0.5 mm 1 m/s 734 mmHg 70%
    18:00 +15°C° 0.5 mm 1 m/s 734 mmHg 73%
    19:00 +14°C° 0.1 mm 1 m/s 735 mmHg 75%
    20:00 +12°C° 0.1 mm 1 m/s 735 mmHg 76%
    21:00 +11°C° 0.1 mm 1 m/s 735 mmHg 78%
    22:00 +9°C° 0.1 mm 2 m/s 735 mmHg 80%
    23:00 +8°C° 0.1 mm 2 m/s 735 mmHg 82%
    Mostrar mais